Tracking 29892 objects as of 21-Nov-2024
HD Live streaming from Space Station
objects crossing your sky now

COSMOS 2251 DEB

Track COSMOS 2251 DEB now!
10-day predictions


NORAD ID: 34454
Int'l Code: 1993-036SX
Perigee: 748.1 km
Apogee: 797.0 km
Inclination: 74.1 °
Period: 100.1 minutes
Semi major axis: 7143 km
RCS: 0.044 m2 (small)
Launch date: June 16, 1993
Source: Commonwealth of Independent States (former USSR) (CIS)
Launch site: PLESETSK MISSILE AND SPACE COMPLEX (PKMTR)

Note: This is SATELLITE DEBRIS
Your satellite tracking list
Your tracking list is empty




NASA's NSSDC Master Catalog

Two Line Element Set (TLE):
1 34454U 93036SX  24325.25490100  .00001415  00000-0  47380-3 0  9994
2 34454  74.0583 270.8012 0034188  72.0044 288.4831 14.37916893824964
Source of the keplerian elements: AFSPC